Regional Weather Roundup
Issued by NWS Grand Forks, ND

Home | Current Version | Previous Version | Graphics & Text | Print | Product List | Glossary Off
Versions: 1 2 3 4 5 6 7 8 9 10 11 12 13 14 15 16 17 18 19 20 21 22 23 24 25 26 27 28 29 30 31 32 33 34 35 36 37 38 39 40 41 42 43 44 45 46 47 48 49 50

000
ASUS43 KFGF 252131
RWRFGF
PRAIRIE TO PINES  WEATHER ROUNDUP
NATIONAL WEATHER SERVICE EASTERN NORTH DAKOTA/GRAND FORKS ND
400 PM CDT TUE JUL 25 2017

 **SATELLITE DATA USED TO AUGMENT SKY COVER AT AUTOMATED STATIONS**
 *****  WEATHER ACROSS EASTERN NORTH DAKOTA  *****

CITY           SKY/WX    TMP DP  RH WIND       PRES   REMARKS
GRAND FORKS    FAIR      87  60  40 W6        29.86R
GRAND FRKS AFB FAIR      84  55  35 W15       29.88R
DEVILS LAKE    FAIR      79  56  45 W18G24    29.93R
FARGO          PTSUNNY   78  70  76 S9        29.90
WAHPETON ARPT  FAIR      79  68  69 S10       29.87F
$$

 ***** WEATHER ACROSS CENTRAL AND WESTERN NORTH DAKOTA  *****

CITY           SKY/WX    TMP DP  RH WIND       PRES   REMARKS
BISMARCK       FAIR      88  48  25 W5        29.98S
MINOT          FAIR      86  49  27 NW16G29   29.96R
JAMESTOWN      FAIR      82  61  48 W13       29.97R
MINOT AFB      FAIR      83  49  29 NW21G28   29.94R
GARRISON         N/A     85  49  28 NW13G26   29.98S
WILLISTON      FAIR      88  44  21 W16       30.00S
DICKINSON      FAIR      86  45  23 N12G17    30.03R
HETTINGER      PTSUNNY   83  44  25 E9        30.05S
$$

 *****  OTHER AIRPORT OBSERVATIONS IN OUR AREA  *****

CITY           SKY/WX    TMP DP  RH WIND       PRES   REMARKS
WALHALLA       NOT AVBL
GRAFTON AIRPOR FAIR      82  57  42 NW15      29.88R
VALLEY CITY AR FAIR      79  70  73 SW10      29.97R
CANDO          NOT AVBL
CAVALIER APRT  FAIR      79  61  53 W13       29.87R
GWINNER        CLOUDY    77  70  78 W6        29.94R
SHEYENNE NWR     N/A     78  71  77 CALM      29.95S
ROLLA            N/A     75  57  53 NW17G28   29.94S
 ***** THE ABOVE OBSERVATIONS ARE NON NWS ARE NOT QUALITY
       CONTROLLED AND MAY MIS-REPORT RAIN FOR SNOW...
$$

  *****  WEATHER ACROSS NORTHERN MINNESOTA  *****

CITY           SKY/WX    TMP DP  RH WIND       PRES   REMARKS
FLAG ISLAND    FAIR      81  64  57 SW7       29.80S HAZE
WARROAD        FAIR      82  68  61 W13       29.83S
ROSEAU         FAIR      82  72  69 W10       29.84S
HALLOCK        FAIR      81  57  44 W13       29.86R
THF RVR FALLS  FAIR      81  68  64 SW12      29.88F
BAUDETTE       CLOUDY    77  69  76 SW13      29.84
WASKISH        CLOUDY    77  68  73 SW10      29.88S
CROOKSTON      FAIR      82  70  65 SW6       29.87F
STEPHEN NDAWN    N/A     82  57  42 W12         N/A
GREENBUSH NDAW   N/A     82  63  51 W12         N/A
$$
  *****  WEATHER ACROSS CENTRAL AND WEST MINNESOTA  *****

CITY           SKY/WX    TMP DP  RH WIND       PRES   REMARKS
FOSSTON        CLOUDY    77  68  73 S12       29.91S
BEMIDJI        CLOUDY    73  67  81 S12       29.91S
PARK RAPIDS    PTSUNNY   75  67  76 S5        29.91F
ELBOW LAKE     LGT RAIN  76  71  84 SE7       29.89F VSB 1
WADENA         FAIR      75  70  83 S8        29.92S
DETROIT LAKES  PTSUNNY   75  68  78 SW7       29.94S
MOORHEAD       FAIR      75  68  78 W3        29.92R
FERGUS FALLS   FAIR      79  70  73 S6        29.88F
MORRIS MN      FAIR      84  72  65 SE7       29.88F
STAPLES        FAIR      73  66  78 S6        29.91F
$$
  *****  WEATHER ELSEWHERE ACROSS MINNESOTA  *****

CITY           SKY/WX    TMP DP  RH WIND       PRES   REMARKS
DULUTH         CLOUDY    69  64  84 SE6       29.98S
INTRNTL FALLS  CLOUDY    74  66  76 S8        29.87F
ELY            CLOUDY    73  63  68 S7G16     29.95F
CLOQUET        CLOUDY    72  64  78 S7        29.96F
WHEATON        FAIR      79  70  73 SE5       29.89F
BRAINERD       PTSUNNY   75  68  78 S9        29.93F
HIBBING        CLOUDY    71  66  84 S10       29.94F
ALEXANDRIA     FAIR      78  71  79 S10       29.94F
SAINT CLOUD    CLOUDY    81  72  74 S9        29.94S
MINNEAPOLIS    CLOUDY    81  69  67 S10       29.96S
$$

  *****  WEATHER ACROSS SOUTH DAKOTA  *****

CITY           SKY/WX    TMP DP  RH WIND       PRES   REMARKS
SIOUX FALLS    CLOUDY    95  70  44 S20G30    29.87F HX 101
BROOKINGS      FAIR      90  73  58 S10       29.85F HX  98
WATERTOWN      FAIR      88  71  57 VRB5      29.91R HX  94
HURON          LGT RAIN  81  74  79 N15       29.86R
SISSETON         N/A     80  73  79 SE6       29.88F
ABERDEEN       FAIR      82  74  76 NE6       29.90S
MITCHELL       FAIR      98  66  34 S12       29.77F THUNDER HX 101
PIERRE         FAIR      91  65  41 NE16      29.87F HX  93
MOBRIDGE       FAIR      84  65  52 N13       29.93R
RAPID CITY     FAIR      85  59  41 NE9       30.02R
$$

  *****  SOME WEATHER IN NEARBY STATES *****

CITY           SKY/WX    TMP DP  RH WIND       PRES   REMARKS
GLASGOW MT     FAIR      82  42  24 MISG      30.04F
GREAT FALLS MT FAIR      78  38  23 VRB5      30.08F
CHEYENNE WY    PTSUNNY   84  47  27 NE13G20   30.15S
SCOTTSBLUFF NE FAIR      95  52  23 W10       29.96F HX  92
OMAHA NE       FAIR      96  74  48 S16G25    29.97F HX 107
DES MOINES IA  PTSUNNY   95  70  44 S16       30.02F HX 101
DAVENPORT IA   FAIR      79  67  66 SE12      30.14F
CHICAGO IL     PTSUNNY   81  56  42 S9        30.16F
EAU CLAIRE WI  LGT RAIN  74  66  76 S13       30.02F
LA CROSSE WI   FAIR      80  68  66 S17G23    30.03F
$$

  *****  SOME NATIONAL WEATHER *****

CITY           SKY/WX    TMP DP  RH WIND       PRES   REMARKS
LA GUARDIA NY  CLOUDY    69  61  75 NE10      30.13S
RALEIGH NC     PTSUNNY   91  64  40 N5        30.07S HX  92
ATLANTA GA     PTSUNNY   78  65  63 SE13G33   30.08F THUNDER
NEW ORLEANS LA PTSUNNY   89  75  63 NW10      30.11F HX  99
OKLAHOMA CITY  FAIR      97  65  34 SE16G22   30.02F HX  99
ALBUQUERQUE NM PTSUNNY   89  54  30 VRB3G18   30.17F
SALT LAKE CITY PTSUNNY   82  55  39 SW5       30.09S
LOS ANGELES CA PTSUNNY   76  65  68 W14       29.98F
BOISE ID       FAIR      92  49  22 NW12      29.97F
SEATTLE WA     FAIR      82  51  34 NW7       30.03F
$$

*** WEATHER ACROSS MANITOBA...SASKATCHEWAN AND ONTARIO ***
                ***ONTARIO***

CITY           SKY/WX    TMP DP  RH WIND       PRES   REMARKS
GERALDTON      PTSUNNY   75  54  46 S20G35    29.96F
THUNDER BAY    CLOUDY    73  59  60 S8G22     29.97F
SIOUX LOOKOUT  PTSUNNY   77  64  65 S14G25    29.77F
TORONTO        PTSUNNY   72  55  56 S8        30.21R
BIG TROUT LK   LGT RAIN  73  63  68 S13G20    29.59F
PICKLE LAKE    PTSUNNY   77  63  61 S18G28    29.74F
DRYDEN         PTSUNNY   77  66  69 S16G30    29.80R
KENORA         CLOUDY    77  70  78 SW9G20    29.82F
$$
                *** MANITOBA***

CITY           SKY/WX    TMP DP  RH WIND       PRES   REMARKS
BRANDON        PTSUNNY   72  57  60 W21G28    29.90R
DAUPHIN        MOSUNNY   72  63  73 NW10G18   29.81R
ISLAND LAKE    PTSUNNY   66  59  77 W8        29.61
PILOT MOUND      N/A     73  57  56 W15G22      N/A
THE PAS        MOSUNNY   73  55  53 NW18      29.73R
THOMPSON       MOSUNNY   72  59  64 N15G25    29.61R
WINNIPEG       PTSUNNY   73  59  60 W18       29.83R
LYNN LAKE      PTSUNNY   73  54  49 N14G25    29.73R
CHURCHILL      FOG       52  50  93 N14       29.62S VSB 1
GILLAM         CLOUDY    68  63  83 NW13      29.55R
$$
                ***SASKATCHEWAN***

CITY           SKY/WX    TMP DP  RH WIND       PRES   REMARKS
ESTEVAN        MOSUNNY   79  54  41 NW17      29.99R
KINDERSLEY     MOSUNNY   75  45  33 NW3       30.04F
LLOYDMINSTER   MOSUNNY   72  54  53 N5        30.04S
PRINCE ALBERT  PTSUNNY   73  57  56 N16G23    29.94R
REGINA         MOSUNNY   79  54  41 NW18G30   29.98R
YORKTON        CLOUDY    66  61  82 W15G23    29.91R
N. BATTLEFORD  PTSUNNY   72  55  56 NW14G20   30.03S
LA RONGE       PTSUNNY   75  54  46 N13G24    29.88R
SASKATOON      PTSUNNY   75  57  53 NW15G24   29.99R
SWIFT CURRENT  SUNNY     75  46  35 NW15G21   30.06S
$$
NOTE: THESE ARE AUTOMATED STATIONS WITH LIMITED QUALITY CONTROL
      "FAIR" INDICATES FEW OR NO CLOUDS BELOW 12,000 FEET WITH NO
      SIGNIFICANT WEATHER AND/OR OBSTRUCTIONS TO VISIBILITY.
      SKY/WX - SKY CONDITION AND SIGNIFICANT WEATHER.
      TMP - AIR TEMPERATURE.    DP   - DEWPOINT TEMPERATURE.
      RH  - RELATIVE HUMIDITY.  PRES - PRESSURE.
      HX  - HEAT INDEX.         WCI  - WIND CHILL INDEX.
$




USA.gov is the U.S. government's official web portal to all federal, state and local government web resources and services.